Findlay, OH

6:07 PM EDT on September 19, 2017 (GMT -0400)
Findlay

Weather History for KFDY - August, 2013

Change the Weather History Date:

Sunday, August 25, 2013

  Actual Average Record
Temperature  
Mean Temperature 72 °F -  
Max Temperature 84 °F 80 °F 93 °F (1959)
Min Temperature 59 °F 58 °F 44 °F (1951)
Cooling Degree Days 6    
Growing Degree Days 22 (Base 50)    
Moisture  
Dew Point 59 °F    
Average Humidity 68    
Maximum Humidity 87    
Minimum Humidity 41    
Precipitation  
Precipitation 0.00 in - - ()
Sea Level Pressure  
Sea Level Pressure 30.25 in    
Wind  
Wind Speed 6 mph (South)    
Max Wind Speed 13 mph    
Max Gust Speed -    
Visibility 10 miles    
Events      
Averages and records for this station are not official NWS values.
T = Trace of Precipitation, MM = Missing Value Source: NWS Daily Summary

Daily Weather History Graph

Daily Weather History Graph

Search for Another Location

Airport or City:

Trip Planner

Search our weather history database for the weather conditions in past years. The results will help you decide how hot, cold, wet, or windy it might be!

Date:

Astronomy

Aug. 25, 2013 Rise Set
Actual Time 6:54 AM EDT 8:17 PM EDT
Civil Twilight 6:25 AM EDT 8:46 PM EDT
Nautical Twilight 5:51 AM EDT 9:20 PM EDT
Astronomical Twilight 5:14 AM EDT 9:57 PM EDT
Moon 10:45 PM EDT (8/25) 11:58 AM EDT (8/25)
Length of Visible Light 14h 20m
Length of Day
13h 23m
Waning Gibbous, 76% of the Moon is Illuminated
Aug 25
Waning Gibbous
Aug 28
Last Quarter
Sep 5
New
Sep 12
First Quarter
Sep 19
Full

Hourly Weather History & Observations

Time (EDT) Temp. Heat Index Dew Point Humidity Pressure Visibility Wind Dir Wind Speed Gust Speed Precip Events Conditions
12:53 AM 63.0 °F - 55.0 °F 75% 30.27 in 10.0 mi ESE 6.9 mph - N/A   Clear
1:53 AM 62.1 °F - 55.0 °F 78% 30.27 in 10.0 mi ESE 4.6 mph - N/A   Clear
2:53 AM 60.1 °F - 55.0 °F 83% 30.26 in 10.0 mi SE 3.5 mph - N/A   Clear
3:53 AM 60.1 °F - 55.0 °F 83% 30.27 in 10.0 mi ESE 3.5 mph - N/A   Clear
4:53 AM 60.1 °F - 55.0 °F 83% 30.27 in 10.0 mi SSE 5.8 mph - N/A   Clear
5:53 AM 61.0 °F - 55.0 °F 81% 30.28 in 10.0 mi SSE 6.9 mph - N/A   Clear
6:53 AM 59.0 °F - 55.0 °F 87% 30.30 in 10.0 mi SSE 5.8 mph - N/A   Clear
7:53 AM 61.0 °F - 55.9 °F 83% 30.31 in 10.0 mi SSE 5.8 mph - N/A   Clear
8:53 AM 66.9 °F - 61.0 °F 81% 30.30 in 10.0 mi South 8.1 mph - N/A   Clear
9:53 AM 73.9 °F - 63.0 °F 68% 30.30 in 10.0 mi SSW 10.4 mph - N/A   Clear
10:53 AM 78.1 °F - 63.0 °F 60% 30.30 in 10.0 mi SSW 12.7 mph - N/A   Clear
11:53 AM 80.1 °F 81.5 °F 63.0 °F 56% 30.30 in 10.0 mi SW 6.9 mph - N/A   Clear
12:53 PM 81.0 °F 81.9 °F 62.1 °F 52% 30.29 in 10.0 mi WSW 8.1 mph - N/A   Clear
1:53 PM 82.9 °F 82.8 °F 59.0 °F 44% 30.27 in 10.0 mi SW 9.2 mph - N/A   Clear
2:53 PM 84.0 °F 83.8 °F 59.0 °F 43% 30.25 in 10.0 mi SW 9.2 mph - N/A   Clear
3:53 PM 84.0 °F 83.8 °F 59.0 °F 43% 30.23 in 10.0 mi WSW 10.4 mph - N/A   Clear
4:53 PM 84.0 °F 83.5 °F 57.9 °F 41% 30.21 in 10.0 mi Calm Calm - N/A   Clear
5:53 PM 82.9 °F 83.7 °F 62.1 °F 49% 30.20 in 10.0 mi SSW 8.1 mph - N/A   Clear
6:53 PM 80.1 °F 81.2 °F 62.1 °F 54% 30.19 in 10.0 mi SSW 5.8 mph - N/A   Clear
7:53 PM 75.9 °F - 63.0 °F 64% 30.19 in 10.0 mi SSW 4.6 mph - N/A   Clear
8:53 PM 69.1 °F - 63.0 °F 81% 30.20 in 10.0 mi SSW 6.9 mph - N/A   Clear
9:53 PM 68.0 °F - 62.1 °F 81% 30.21 in 10.0 mi South 6.9 mph - N/A   Clear
10:53 PM 66.9 °F - 61.0 °F 81% 30.21 in 10.0 mi South 5.8 mph - N/A   Clear
11:53 PM 66.0 °F - 60.1 °F 81% 30.22 in 10.0 mi South 6.9 mph - N/A   Clear